Simultaneous Nadir Overpasses (SNOs) Predictions

Prediction of SNOs between AQUA and METOP-A Satellite Orbit:

Table of predicted SNOs for the next 14.0 days since TLE Epoch: 10/17/2020
Index Date (AQUA) Time (AQUA) Lat,Lon (AQUA) SZA (AQUA ) Date (METOP-A) Time (METOP-A) Lat,Lon (METOP-A) SZA (METOP-A ) Distance(km) Time Diff (sec)
1 10/17/2020 19:32:46 -76.67, 53.45 93.58 10/17/2020 19:32:19 -76.70, 53.48 93.56 2.57 27
2 10/17/2020 20:22:14 76.74,-139.13 86.51 10/17/2020 20:22:58 76.74,-139.00 86.50 3.28 44
3 10/20/2020 15:07:00 -76.69, 119.83 92.55 10/20/2020 15:06:42 -76.71, 119.86 92.54 1.77 18
4 10/20/2020 15:56:28 76.75, -72.75 87.53 10/20/2020 15:57:21 76.75, -72.63 87.52 3.14 53
5 10/23/2020 09:51:40 76.35, 19.79 88.05 10/23/2020 09:50:32 76.32, 17.50 88.12 60.23 68
6 10/23/2020 10:41:14 -76.71,-173.81 91.54 10/23/2020 10:41:05 -76.71,-173.77 91.54 1.16 9
7 10/23/2020 11:30:41 76.73, -6.23 88.50 10/23/2020 11:31:44 76.76, -6.27 88.52 3.04 63
8 10/26/2020 05:25:59 76.67, 85.16 89.37 10/26/2020 05:24:46 76.69, 85.16 89.40 2.36 73
9 10/26/2020 06:15:27 -76.74,-107.47 90.54 10/26/2020 06:15:27 -76.72,-107.40 90.57 3.37 0
10 10/26/2020 07:04:54 76.76, 60.11 89.49 10/26/2020 07:06:06 76.76, 60.09 89.49 0.37 72
11 10/29/2020 01:00:13 76.70, 151.48 90.35 10/29/2020 00:59:09 76.69, 151.51 90.34 1.66 64
12 10/29/2020 01:49:40 -76.73, -40.98 89.62 10/29/2020 01:49:50 -76.72, -41.05 89.62 2.08 10
